FW5816 Weather Reports


Display with metric or nautical units.
time (UTC)temp
F
wind
direction
speed
MPH
gust
MPH
rain 1hr
in
rain 24hr
in
rain mn
in
humidity
%
barometer
mb
20260508181533 71 252 2.0 19.0 0.00 0.00 0.00 42 1012.0
20260508181011 71 344 5.0 19.0 0.00 0.00 0.00 41 1012.2
20260508180512 71 205 5.0 13.0 0.00 0.00 0.00 43 1012.5
20260508180031 71 139 2.0 13.0 0.00 0.00 0.00 43 1012.4
20260508175514 70 155 5.0 13.0 0.00 0.00 0.00 42 1012.7
20260508175014 70 170 7.0 13.0 0.00 0.00 0.00 44 1012.8
20260508174533 70 229 3.0 16.0 0.00 0.00 0.00 44 1012.9
20260508174020 70 18 7.0 16.0 0.00 0.00 0.00 43 1013.0
20260508173511 70 285 5.0 16.0 0.00 0.00 0.00 43 1013.1
20260508173031 69 214 5.0 13.0 0.00 0.00 0.00 42 1013.2
20260508172517 69 260 6.0 13.0 0.00 0.00 0.00 45 1013.2
20260508172016 69 258 7.0 13.0 0.00 0.00 0.00 44 1013.4
20260508171532 69 165 4.0 11.0 0.00 0.00 0.00 44 1013.5
20260508171013 69 261 4.0 15.0 0.00 0.00 0.00 45 1013.4
20260508170513 68 280 7.0 15.0 0.00 0.00 0.00 42 1013.5
20260508170031 69 196 4.0 17.0 0.00 0.00 0.00 43 1013.6
20260508165513 69 215 8.0 17.0 0.00 0.00 0.00 45 1013.8
20260508165016 68 136 6.0 12.0 0.00 0.00 0.00 45 1014.0
20260508164530 68 213 4.0 12.0 0.00 0.00 0.00 45 1014.0
20260508164014 67 248 5.0 12.0 0.00 0.00 0.00 44 1014.0
20260508163513 67 278 7.0 14.0 0.00 0.00 0.00 46 1014.2
20260508163035 67 191 6.0 14.0 0.00 0.00 0.00 44 1014.4
20260508162514 67 253 6.0 15.0 0.00 0.00 0.00 45 1014.4
20260508162014 67 140 5.0 15.0 0.00 0.00 0.00 46 1014.5
20260508161532 67 276 7.0 14.0 0.00 0.00 0.00 49 1014.5
20260508161012 67 139 3.0 15.0 0.00 0.00 0.00 49 1014.6
20260508160515 66 274 6.0 15.0 0.00 0.00 0.00 48 1014.7
20260508160032 66 281 4.0 14.0 0.00 0.00 0.00 51 1014.8
20260508155516 66 229 7.0 14.0 0.00 0.00 0.00 47 1014.7
20260508155015 66 315 7.0 14.0 0.00 0.00 0.00 45 1014.7
20260508154531 66 263 5.0 13.0 0.00 0.00 0.00 47 1014.9
20260508154020 66 304 5.0 11.0 0.00 0.00 0.00 49 1014.9
20260508153515 66 269 4.0 11.0 0.00 0.00 0.00 48 1015.0
20260508153038 65 240 3.0 9.0 0.00 0.00 0.00 49 1015.1
20260508152516 65 233 3.0 10.0 0.00 0.00 0.00 51 1015.2
20260508152015 64 269 4.0 12.0 0.00 0.00 0.00 50 1015.2
20260508151530 64 302 6.0 12.0 0.00 0.00 0.00 49 1015.3
20260508151016 63 259 5.0 12.0 0.00 0.00 0.00 50 1015.4
20260508150514 63 274 7.0 12.0 0.00 0.00 0.00 50 1015.5
20260508150050 63 169 4.0 13.0 0.00 0.00 0.00 51 1015.5
20260508145513 63 274 7.0 13.0 0.00 0.00 0.00 49 1015.5
20260508145012 63 246 3.0 10.0 0.00 0.00 0.00 52 1015.7
20260508144531 63 191 4.0 13.0 0.00 0.00 0.00 52 1015.5
20260508144013 62 274 6.0 13.0 0.00 0.00 0.00 51 1015.5
20260508143514 62 289 6.0 13.0 0.00 0.00 0.00 50 1015.7
20260508143047 63 275 3.0 9.0 0.00 0.00 0.00 52 1015.6
20260508142514 62 148 5.0 9.0 0.00 0.00 0.00 51 1015.6
20260508142011 62 205 3.0 13.0 0.00 0.00 0.00 52 1015.5
20260508141532 62 231 6.0 13.0 0.00 0.00 0.00 51 1015.6
20260508141013 62 198 4.0 10.0 0.00 0.00 0.00 52 1015.5
20260508140516 61 215 3.0 9.0 0.00 0.00 0.00 53 1015.5
20260508140032 61 175 5.0 12.0 0.00 0.00 0.00 52 1015.5
20260508135517 60 224 4.0 12.0 0.00 0.00 0.00 53 1015.6
20260508135012 60 277 5.0 10.0 0.00 0.00 0.00 53 1015.8
20260508134530 60 287 6.0 12.0 0.00 0.00 0.00 53 1015.7
20260508134012 60 240 5.0 12.0 0.00 0.00 0.00 54 1015.7
20260508133513 59 225 5.0 12.0 0.00 0.00 0.00 54 1015.8
20260508133032 59 307 3.0 6.0 0.00 0.00 0.00 57 1015.6
20260508132513 59 293 2.0 4.0 0.00 0.00 0.00 57 1015.6
20260508132013 58 337 1.0 7.0 0.00 0.00 0.00 60 1015.5
20260508131533 58 236 2.0 7.0 0.00 0.00 0.00 58 1015.6
20260508131015 58 279 3.0 7.0 0.00 0.00 0.00 59 1015.6
20260508130512 57 222 3.0 7.0 0.00 0.00 0.00 59 1015.6
20260508130032 57 269 2.0 6.0 0.00 0.00 0.00 60 1015.5
20260508125514 57 168 2.0 6.0 0.00 0.00 0.00 61 1015.5
20260508125013 57 249 0.0 3.0 0.00 0.00 0.00 62 1015.7
20260508124533 56 132 0.0 2.0 0.00 0.00 0.00 64 1015.5
20260508124011 55 202 0.0 2.0 0.00 0.00 0.00 65 1015.6
20260508123514 54 202 0.0 2.0 0.00 0.00 0.00 66 1015.6
20260508123035 53 147 0.0 2.0 0.00 0.00 0.00 68 1015.6
20260508122513 53 138 0.0 2.0 0.00 0.00 0.00 68 1015.5
20260508122015 52 143 0.0 2.0 0.00 0.00 0.00 69 1015.5
20260508121532 52 120 0.0 2.0 0.00 0.00 0.00 69 1015.4
20260508121010 51 141 0.0 2.0 0.00 0.00 0.00 70 1015.5
20260508120511 51 133 0.0 1.0 0.00 0.00 0.00 70 1015.4
20260508120032 50 133 0.0 1.0 0.00 0.00 0.00 71 1015.4
20260508115512 50 133 0.0 1.0 0.00 0.00 0.00 72 1015.4
20260508115012 49 0 0.0 1.0 0.00 0.00 0.00 72 1015.2
20260508114534 49 132 0.0 1.0 0.00 0.00 0.00 74 1015.3
20260508114014 48 132 0.0 1.0 0.00 0.00 0.00 75 1015.2
20260508113514 48 132 0.0 1.0 0.00 0.00 0.00 77 1015.2
20260508113030 47 132 0.0 1.0 0.00 0.00 0.00 78 1015.1
20260508112513 46 132 0.0 1.0 0.00 0.00 0.00 77 1015.2
20260508112011 46 0 0.0 1.0 0.00 0.00 0.00 79 1015.1
20260508111530 45 132 0.0 1.0 0.00 0.00 0.00 79 1015.1
20260508111014 45 132 0.0 1.0 0.00 0.00 0.00 79 1014.9
20260508110514 44 132 0.0 1.0 0.00 0.00 0.00 79 1014.9
20260508110030 44 132 0.0 1.0 0.00 0.00 0.00 78 1015.0
20260508105512 44 132 0.0 1.0 0.00 0.00 0.00 78 1015.0
20260508105017 44 132 0.0 3.0 0.00 0.00 0.00 77 1014.9
20260508104533 44 142 0.0 3.0 0.00 0.00 0.00 78 1015.0
20260508104010 44 124 1.0 3.0 0.00 0.00 0.00 77 1014.9
20260508103511 44 136 0.0 3.0 0.00 0.00 0.00 78 1014.9
20260508103031 44 133 0.0 2.0 0.00 0.00 0.00 78 1014.8
20260508102513 44 143 0.0 2.0 0.00 0.00 0.00 78 1014.9
20260508102013 43 146 0.0 1.0 0.00 0.00 0.00 79 1014.9
20260508101540 43 145 0.0 2.0 0.00 0.00 0.00 80 1014.8
20260508101013 43 0 0.0 2.0 0.00 0.00 0.00 81 1014.9
20260508100511 43 139 0.0 2.0 0.00 0.00 0.00 81 1014.8
20260508100034 43 0 1.0 3.0 0.00 0.00 0.00 82 1014.7
20260508095513 43 127 0.0 3.0 0.00 0.00 0.00 83 1015.0
20260508095013 43 134 0.0 2.0 0.00 0.00 0.00 84 1015.0
20260508094531 42 129 0.0 1.0 0.00 0.00 0.00 85 1015.0
20260508094019 42 145 0.0 1.0 0.00 0.00 0.00 85 1014.9
20260508093513 42 89 0.0 2.0 0.00 0.00 0.00 85 1014.9
20260508093036 42 89 1.0 2.0 0.00 0.00 0.00 85 1014.9
20260508092513 43 90 1.0 2.0 0.00 0.00 0.00 84 1014.9
20260508092011 43 96 1.0 2.0 0.00 0.00 0.00 84 1015.0
20260508091534 43 131 1.0 1.0 0.00 0.00 0.00 83 1015.0
20260508091011 43 131 0.0 1.0 0.00 0.00 0.00 83 1015.0
20260508090511 44 0 0.0 1.0 0.00 0.00 0.00 83 1015.0
20260508090035 44 0 0.0 1.0 0.00 0.00 0.00 82 1014.9
20260508085513 44 0 0.0 1.0 0.00 0.00 0.00 83 1014.9
20260508085015 44 0 0.0 1.0 0.00 0.00 0.00 82 1014.7
20260508084532 44 0 0.0 1.0 0.00 0.00 0.00 82 1014.9
20260508084013 44 0 0.0 1.0 0.00 0.00 0.00 82 1014.7
20260508083512 43 0 0.0 1.0 0.00 0.00 0.00 82 1014.7
20260508083030 43 0 0.0 1.0 0.00 0.00 0.00 84 1014.8
20260508082512 43 131 0.0 1.0 0.00 0.00 0.00 86 1014.9
20260508082013 43 0 0.0 1.0 0.00 0.00 0.00 86 1014.9
20260508081534 43 0 0.0 1.0 0.00 0.00 0.00 86 1014.8
20260508081012 43 131 0.0 1.0 0.00 0.00 0.00 86 1015.0
20260508080513 43 131 0.0 1.0 0.00 0.00 0.00 86 1014.9
20260508080052 43 0 0.0 1.0 0.00 0.00 0.00 86 1014.8
20260508075514 43 0 0.0 1.0 0.00 0.00 0.00 85 1014.7
20260508075013 43 0 0.0 1.0 0.00 0.00 0.00 85 1014.8
20260508074530 43 0 0.0 1.0 0.00 0.00 0.00 85 1014.7
20260508074013 43 0 0.0 1.0 0.00 0.00 0.00 85 1014.7
20260508073514 44 0 0.0 1.0 0.00 0.00 0.00 84 1014.7
20260508073032 43 0 0.0 1.0 0.00 0.00 0.00 84 1014.7
20260508072512 43 0 0.0 1.0 0.00 0.00 0.00 85 1014.9
20260508072012 43 131 0.0 1.0 0.00 0.00 0.00 85 1014.8
20260508071531 43 131 0.0 1.0 0.00 0.00 0.00 86 1014.8
20260508071012 43 0 0.0 1.0 0.00 0.00 0.00 86 1015.0
20260508070513 43 0 0.0 1.0 0.00 0.00 0.00 86 1014.9
20260508070031 43 0 0.0 1.0 0.00 0.00 0.00 85 1015.0
20260508065512 44 0 0.0 1.0 0.00 0.00 0.00 85 1015.0
20260508065010 43 131 0.0 1.0 0.00 0.00 0.00 85 1015.0
20260508064542 43 131 0.0 1.0 0.00 0.00 0.00 86 1015.1
20260508064010 43 131 0.0 1.0 0.00 0.00 0.00 86 1015.1
20260508063510 43 0 0.0 1.0 0.00 0.00 0.00 86 1015.2
20260508063030 43 0 0.0 1.0 0.00 0.00 0.00 85 1015.2
20260508062514 44 0 0.0 0.0 0.00 0.00 0.00 84 1015.3
20260508062014 44 0 0.0 1.0 0.00 0.00 0.00 83 1015.3
20260508061534 44 0 0.0 1.0 0.00 0.00 0.00 83 1015.3
20260508061011 45 0 0.0 1.0 0.00 0.00 0.00 83 1015.4
20260508060517 45 0 0.0 1.0 0.00 0.00 0.00 82 1015.5
20260508060030 45 0 0.0 1.0 0.00 0.00 0.00 81 1015.5
20260508055513 45 0 0.0 1.0 0.00 0.00 0.00 80 1015.4
20260508055012 46 0 0.0 1.0 0.00 0.00 0.00 80 1015.4
20260508054542 46 131 0.0 1.0 0.00 0.00 0.00 80 1015.4
20260508054013 46 131 0.0 1.0 0.00 0.00 0.00 80 1015.5
20260508053512 46 131 0.0 1.0 0.00 0.00 0.00 80 1015.5
20260508053030 46 0 0.0 1.0 0.00 0.00 0.00 79 1015.6
20260508052515 46 0 0.0 1.0 0.00 0.00 0.00 77 1015.6
20260508052014 46 131 0.0 1.0 0.00 0.00 0.00 78 1015.7
20260508051534 46 0 0.0 1.0 0.00 0.00 0.00 78 1015.7
20260508051012 46 0 0.0 1.0 0.00 0.00 0.00 77 1015.6
20260508050515 46 131 0.0 1.0 0.00 0.00 0.00 76 1015.6
20260508050035 46 0 0.0 1.0 0.00 0.00 0.00 80 1015.5
20260508045513 46 67 0.0 1.0 0.00 0.00 0.00 79 1015.7
20260508045010 46 0 0.0 0.0 0.00 0.00 0.00 77 1015.5
20260508044530 46 0 0.0 0.0 0.00 0.00 0.00 79 1015.5
20260508044013 46 0 0.0 0.0 0.00 0.00 0.00 79 1015.5
20260508043513 46 0 0.0 0.0 0.00 0.00 0.00 78 1015.6
20260508043032 46 0 0.0 0.0 0.00 0.00 0.00 78 1015.6
20260508042512 46 0 0.0 0.0 0.00 0.00 0.00 77 1015.5
20260508042014 47 0 0.0 0.0 0.00 0.00 0.00 77 1015.6
20260508041530 47 0 0.0 0.0 0.00 0.00 0.00 77 1015.7
20260508041013 47 0 0.0 0.0 0.00 0.00 0.00 75 1015.6
20260508040513 47 0 0.0 0.0 0.00 0.00 0.00 73 1015.6
20260508040047 47 0 0.0 0.0 0.00 0.00 0.00 75 1015.6
20260508035510 47 0 0.0 0.0 0.00 0.00 0.00 75 1015.5
20260508035017 47 0 0.0 1.0 0.00 0.00 0.00 76 1015.5
20260508034539 47 0 0.0 1.0 0.00 0.00 0.00 77 1015.5
20260508034010 47 0 0.0 0.0 0.00 0.00 0.00 76 1015.5
20260508033511 47 0 0.0 0.0 0.00 0.00 0.00 75 1015.6
20260508033032 47 0 0.0 0.0 0.00 0.00 0.00 72 1015.7
20260508032513 47 0 0.0 1.0 0.00 0.00 0.00 77 1015.6
20260508032014 47 0 0.0 1.0 0.00 0.00 0.00 76 1015.6
20260508031533 47 0 0.0 1.0 0.00 0.00 0.00 76 1015.6
20260508031014 47 0 0.0 1.0 0.00 0.00 0.00 78 1015.7
20260508030511 47 0 0.0 1.0 0.00 0.00 0.00 78 1015.6
20260508030033 48 67 0.0 1.0 0.00 0.00 0.00 78 1015.7
20260508025510 48 0 0.0 1.0 0.00 0.00 0.00 78 1015.6
20260508025014 48 0 0.0 1.0 0.00 0.00 0.00 77 1015.6
20260508024531 49 0 0.0 1.0 0.00 0.00 0.00 74 1015.6
20260508024013 49 0 0.0 0.0 0.00 0.00 0.00 70 1015.4
20260508023513 49 0 0.0 0.0 0.00 0.00 0.00 68 1015.3
20260508023033 49 0 0.0 0.0 0.00 0.00 0.00 69 1015.3
20260508022510 49 0 0.0 0.0 0.00 0.00 0.00 69 1015.3
20260508022014 49 0 0.0 0.0 0.00 0.00 0.00 69 1015.2
20260508021533 50 0 0.0 0.0 0.00 0.00 0.00 70 1015.2
20260508021010 50 0 0.0 0.0 0.00 0.00 0.00 70 1015.1
20260508020512 50 0 0.0 0.0 0.00 0.00 0.00 69 1015.0
20260508020031 51 0 0.0 0.0 0.00 0.00 0.00 68 1015.0
20260508015516 51 0 0.0 0.0 0.00 0.00 0.00 67 1014.9
20260508015011 51 0 0.0 0.0 0.00 0.00 0.00 66 1014.7
20260508014530 52 0 0.0 0.0 0.00 0.00 0.00 66 1014.7
20260508014012 52 0 0.0 0.0 0.00 0.00 0.00 63 1014.7
20260508013512 52 0 0.0 0.0 0.00 0.00 0.00 62 1014.9
20260508013034 53 0 0.0 0.0 0.00 0.00 0.00 62 1014.8
20260508012510 53 0 0.0 0.0 0.00 0.00 0.00 61 1014.8
20260508012012 54 0 0.0 1.0 0.00 0.00 0.00 58 1014.7
20260508011533 54 0 0.0 1.0 0.00 0.00 0.00 57 1014.8
20260508011013 55 0 0.0 1.0 0.00 0.00 0.00 55 1014.5
20260508010513 55 67 0.0 1.0 0.00 0.00 0.00 57 1014.4
20260508010031 56 0 0.0 1.0 0.00 0.00 0.00 56 1014.5
20260508005509 56 0 0.0 1.0 0.00 0.00 0.00 55 1014.5
20260508005012 57 67 0.0 0.0 0.00 0.00 0.00 50 1014.5
20260508004533 58 0 0.0 0.0 0.00 0.00 0.00 50 1014.5
20260508004012 58 0 0.0 1.0 0.00 0.00 0.00 49 1014.4
20260508003518 59 0 0.0 1.0 0.00 0.00 0.00 47 1014.3
20260508003029 59 0 0.0 1.0 0.00 0.00 0.00 44 1014.3
20260508002509 60 0 0.0 1.0 0.00 0.00 0.00 45 1014.3
20260508002013 61 67 0.0 1.0 0.00 0.00 0.00 43 1014.3
20260508001532 62 0 0.0 1.0 0.00 0.00 0.00 41 1014.3
20260508001009 62 0 0.0 1.0 0.00 0.00 0.00 40 1014.2
20260508000515 64 67 0.0 1.0 0.00 0.00 0.00 39 1014.1
20260508000032 64 0 0.0 1.0 0.00 0.00 0.00 38 1014.2
20260507235517 64 0 0.0 1.0 0.00 0.00 0.00 38 1014.2
20260507235010 64 0 0.0 1.0 0.00 0.00 0.00 38 1014.0
20260507234543 63 0 0.0 1.0 0.00 0.00 0.00 38 1014.1
20260507234010 63 0 0.0 1.0 0.00 0.00 0.00 38 1014.1
20260507233510 63 73 0.0 1.0 0.00 0.00 0.00 39 1014.1
20260507233030 63 0 0.0 3.0 0.00 0.00 0.00 38 1014.2
20260507232511 62 73 1.0 5.0 0.00 0.00 0.00 38 1014.2
20260507232014 62 3 2.0 5.0 0.00 0.00 0.00 38 1014.2
20260507231532 63 38 3.0 5.0 0.00 0.00 0.00 38 1014.2
20260507231011 64 40 1.0 3.0 0.00 0.00 0.00 38 1014.2
20260507230513 64 78 1.0 3.0 0.00 0.00 0.00 37 1014.2
20260507230031 64 143 0.0 2.0 0.00 0.00 0.00 37 1014.3
20260507225512 63 143 0.0 4.0 0.00 0.00 0.00 37 1014.3
20260507225010 63 101 1.0 4.0 0.00 0.00 0.00 37 1014.3
20260507224532 63 358 1.0 6.0 0.00 0.00 0.00 38 1014.3
20260507224009 63 274 1.0 7.0 0.00 0.00 0.00 38 1014.4
20260507223510 62 325 4.0 10.0 0.00 0.00 0.00 38 1014.4
20260507223031 62 345 3.0 10.0 0.00 0.00 0.00 39 1014.3
20260507222513 62 351 4.0 8.0 0.00 0.00 0.00 38 1014.4
20260507222012 63 23 3.0 8.0 0.00 0.00 0.00 38 1014.4
20260507221534 63 312 2.0 8.0 0.00 0.00 0.00 40 1014.3
20260507221011 62 359 3.0 8.0 0.00 0.00 0.00 39 1014.2
20260507220512 63 41 3.0 7.0 0.00 0.00 0.00 38 1014.3
20260507220038 62 54 2.0 7.0 0.00 0.00 0.00 40 1014.2
20260507215512 62 47 4.0 9.0 0.00 0.00 0.00 39 1014.3
20260507215013 62 34 5.0 10.0 0.00 0.00 0.00 39 1014.2
20260507214533 63 46 4.0 10.0 0.00 0.00 0.00 37 1014.3
20260507214012 63 4 4.0 10.0 0.00 0.00 0.00 37 1014.3
20260507213513 62 243 3.0 8.0 0.00 0.00 0.00 39 1014.2
20260507213034 62 297 5.0 9.0 0.00 0.00 0.00 38 1014.3
20260507212514 62 250 3.0 9.0 0.00 0.00 0.00 39 1014.2
20260507212014 62 169 2.0 9.0 0.00 0.00 0.00 40 1014.4
20260507211537 62 356 2.0 9.0 0.00 0.00 0.00 39 1014.5
20260507211014 62 6 3.0 10.0 0.00 0.00 0.00 38 1014.5
20260507210513 62 32 3.0 12.0 0.00 0.00 0.00 41 1014.3
20260507210043 61 28 5.0 12.0 0.00 0.00 0.00 39 1014.3
20260507205517 61 8 6.0 12.0 0.00 0.00 0.00 38 1014.4
20260507205012 61 37 4.0 12.0 0.00 0.00 0.00 40 1014.4
20260507204536 61 34 6.0 10.0 0.00 0.00 0.00 38 1014.3
20260507204014 62 340 3.0 7.0 0.00 0.00 0.00 39 1014.4
20260507203516 62 79 2.0 11.0 0.00 0.00 0.00 38 1014.5
20260507203032 61 308 4.0 11.0 0.00 0.00 0.00 41 1014.5
20260507202514 61 34 4.0 11.0 0.00 0.00 0.00 41 1014.5
20260507202014 61 52 4.0 11.0 0.00 0.00 0.00 40 1014.5
20260507201532 61 300 2.0 17.0 0.00 0.00 0.00 41 1014.4
20260507201017 61 345 8.0 17.0 0.00 0.00 0.00 41 1014.6
20260507200515 60 343 3.0 13.0 0.00 0.00 0.00 42 1014.6
20260507200034 61 35 5.0 13.0 0.00 0.00 0.00 40 1014.7
20260507195514 60 3 4.0 15.0 0.00 0.00 0.00 40 1014.6
20260507195014 60 282 5.0 15.0 0.00 0.00 0.00 40 1014.9
20260507194546 61 309 7.0 15.0 0.00 0.00 0.00 42 1014.8
20260507194014 61 41 4.0 14.0 0.00 0.00 0.00 40 1014.7
20260507193518 61 313 5.0 14.0 0.00 0.00 0.00 40 1014.8
20260507193031 61 150 3.0 11.0 0.00 0.00 0.00 38 1014.7
20260507192513 60 292 3.0 11.0 0.00 0.00 0.00 42 1014.9
20260507192014 60 273 6.0 13.0 0.00 0.00 0.00 40 1014.8
20260507191532 60 351 7.0 14.0 0.00 0.00 0.00 40 1014.7
20260507191018 60 24 8.0 14.0 0.00 0.00 0.00 39 1014.8
20260507190513 60 14 7.0 13.0 0.00 0.00 0.00 39 1014.8
20260507190044 59 49 6.0 14.0 0.00 0.00 0.00 41 1014.9
20260507185527 60 23 5.0 14.0 0.00 0.00 0.00 40 1014.9
20260507185013 60 348 2.0 12.0 0.00 0.00 0.00 42 1015.0
20260507184541 59 6 5.0 14.0 0.00 0.00 0.00 41 1014.9
20260507184013 58 18 7.0 14.0 0.00 0.00 0.00 40 1015.0
20260507183514 59 42 8.0 13.0 0.00 0.00 0.00 40 1015.0
20260507183030 59 347 7.0 13.0 0.00 0.00 0.00 39 1015.0
20260507182512 59 347 6.0 15.0 0.00 0.00 0.00 42 1015.1
20260507182015 58 25 8.0 15.0 0.00 0.00 0.00 41 1015.0